sat.trackr.live / text

‹ back to catalog

TIANQI-17

NORAD 64059 · 2025-105B

PAYLOAD ACTIVE UNKNOWN

§ Identity

Operator
Country
PRC
Launch date
2025-05-19
Launch site
YSLA
Launch vehicle
Mass (kg)
RCS (m²)

External: N2YO · Heavens-Above · Gunter

§ Orbital elements

Epoch: 2026-09-21T18:06:10.108224Z

Period
102.92 min
Inclination
44.9810°
Eccentricity
0.0008926
Mean motion
13.99181975 rev/d
Perigee alt
890.1 km
Apogee alt
903.1 km
Semi-major
7,274.8 km
B*
8.7367e-5
RAAN
312.0204°
Arg perigee
126.8480°
Mean anomaly
233.3173°
Rev number
6,872

§ Raw data

TIANQI-171 64059U 25105B   26264.75428366 -.00000001  00000+0  87367-4 0  99942 64059  44.9810 312.0204 0008926 126.8480 233.3173 13.99181975 68726

JSON: /api/v1/satellites/64059 · /tle

For live sub-satellite position, see the globe view (requires WebGL).

§ Visibility from observer

Set your observer location to see the next 7 days of passes ≥ 10°. The values pass through the URL so the page stays shareable.

No JS? Fill the form by hand. The geolocation button needs JavaScript.